TimeCST,TemperatureF,Dew PointF,Humidity,Sea Level PressureIn,VisibilityMPH,Wind Direction,Wind SpeedMPH,Gust SpeedMPH,PrecipitationIn,Events,Conditions,WindDirDegrees,DateUTC
12:12 AM,50.4,33.3,52,30.10,10.0,SSE,10.4,-,N/A,,Overcast,160,2012-11-19 06:12:00
12:32 AM,50.0,33.4,53,30.10,10.0,SSE,8.1,-,N/A,,Overcast,160,2012-11-19 06:32:00
12:52 AM,50.0,33.8,54,30.10,10.0,SSE,8.1,-,N/A,,Overcast,160,2012-11-19 06:52:00
1:12 AM,50.0,33.8,54,30.09,10.0,SSE,6.9,-,N/A,,Overcast,160,2012-11-19 07:12:00
1:32 AM,50.0,34.0,54,30.09,10.0,SSE,5.8,-,N/A,,Overcast,160,2012-11-19 07:32:00
1:52 AM,50.0,33.8,54,30.09,10.0,SSE,6.9,-,N/A,,Overcast,160,2012-11-19 07:52:00
2:12 AM,50.2,34.0,54,30.09,10.0,SSE,6.9,-,N/A,,Overcast,160,2012-11-19 08:12:00
2:32 AM,50.4,33.8,53,30.09,10.0,SSE,9.2,-,N/A,,Overcast,160,2012-11-19 08:32:00
2:52 AM,50.9,33.6,52,30.08,10.0,SSE,9.2,-,N/A,,Overcast,160,2012-11-19 08:52:00
3:12 AM,50.9,33.3,51,30.07,10.0,SSE,10.4,16.1,N/A,,Scattered Clouds,160,2012-11-19 09:12:00
3:32 AM,51.1,32.9,50,30.07,10.0,SSE,9.2,-,N/A,,Mostly Cloudy,160,2012-11-19 09:32:00
3:52 AM,51.3,32.9,50,30.07,10.0,SSE,8.1,-,N/A,,Overcast,160,2012-11-19 09:52:00
4:12 AM,51.4,33.1,50,30.06,10.0,SSE,10.4,-,N/A,,Overcast,160,2012-11-19 10:12:00
4:32 AM,51.3,33.3,50,30.06,10.0,SSE,6.9,-,N/A,,Overcast,150,2012-11-19 10:32:00
4:52 AM,51.3,33.8,51,30.06,10.0,SSE,8.1,-,N/A,,Overcast,160,2012-11-19 10:52:00
5:12 AM,51.4,34.0,51,30.06,10.0,SSE,8.1,-,N/A,,Overcast,150,2012-11-19 11:12:00
5:32 AM,51.3,34.7,53,30.05,10.0,SSE,8.1,-,N/A,,Overcast,160,2012-11-19 11:32:00
5:52 AM,51.1,35.4,55,30.06,10.0,South,9.2,17.3,N/A,,Mostly Cloudy,170,2012-11-19 11:52:00
6:12 AM,50.9,36.1,57,30.05,10.0,South,9.2,-,N/A,,Mostly Cloudy,170,2012-11-19 12:12:00
6:32 AM,50.4,36.5,59,30.06,10.0,South,9.2,-,N/A,,Overcast,170,2012-11-19 12:32:00
6:52 AM,50.0,36.7,60,30.05,10.0,SSE,9.2,-,N/A,,Mostly Cloudy,160,2012-11-19 12:52:00
7:32 AM,49.3,37.6,64,30.05,10.0,SSE,5.8,-,N/A,,Scattered Clouds,160,2012-11-19 13:32:00
7:52 AM,49.3,38.3,66,30.06,10.0,South,4.6,-,N/A,,Scattered Clouds,170,2012-11-19 13:52:00
8:12 AM,49.1,37.8,65,30.07,10.0,SSE,4.6,-,N/A,,Mostly Cloudy,150,2012-11-19 14:12:00
8:32 AM,49.6,38.7,66,30.06,10.0,SSE,6.9,-,N/A,,Overcast,160,2012-11-19 14:32:00
8:52 AM,50.0,39.2,66,30.06,10.0,SSE,4.6,-,N/A,,Mostly Cloudy,150,2012-11-19 14:52:00
9:12 AM,50.0,39.2,66,30.05,10.0,SSE,4.6,-,N/A,,Mostly Cloudy,160,2012-11-19 15:12:00
9:32 AM,50.9,39.4,65,30.05,10.0,SE,5.8,-,N/A,,Overcast,140,2012-11-19 15:32:00
9:52 AM,51.1,39.2,64,30.05,10.0,SSE,5.8,-,N/A,,Mostly Cloudy,160,2012-11-19 15:52:00
10:12 AM,53.1,39.6,60,30.06,10.0,SSE,5.8,-,N/A,,Scattered Clouds,160,2012-11-19 16:12:00
10:32 AM,55.4,38.7,53,30.05,10.0,South,11.5,-,N/A,,Scattered Clouds,180,2012-11-19 16:32:00
10:52 AM,55.8,38.5,52,30.05,10.0,South,11.5,-,N/A,,Clear,190,2012-11-19 16:52:00
11:12 AM,56.5,38.1,50,30.03,10.0,SSE,8.1,-,N/A,,Clear,160,2012-11-19 17:12:00
11:32 AM,57.6,38.7,49,30.03,10.0,SSE,8.1,-,N/A,,Scattered Clouds,160,2012-11-19 17:32:00
11:52 AM,57.2,38.5,50,30.03,10.0,South,4.6,-,N/A,,Mostly Cloudy,170,2012-11-19 17:52:00
12:12 PM,57.2,37.9,49,30.02,10.0,South,6.9,-,N/A,,Overcast,190,2012-11-19 18:12:00
12:32 PM,57.9,37.6,47,30.02,10.0,South,6.9,-,N/A,,Overcast,180,2012-11-19 18:32:00
12:52 PM,57.4,37.6,48,30.02,10.0,South,8.1,-,N/A,,Overcast,170,2012-11-19 18:52:00
1:12 PM,58.8,37.8,46,30.02,10.0,SSE,6.9,-,N/A,,Mostly Cloudy,150,2012-11-19 19:12:00
1:32 PM,59.7,37.9,44,30.01,10.0,South,8.1,-,N/A,,Clear,170,2012-11-19 19:32:00
1:52 PM,59.4,37.9,45,30.01,10.0,SE,5.8,-,N/A,,Clear,140,2012-11-19 19:52:00
2:12 PM,59.9,37.9,44,30.01,10.0,SE,6.9,-,N/A,,Clear,140,2012-11-19 20:12:00
2:32 PM,59.9,37.9,44,30.01,10.0,SSE,4.6,-,N/A,,Clear,150,2012-11-19 20:32:00
2:52 PM,59.4,37.8,45,30.01,10.0,South,6.9,-,N/A,,Clear,180,2012-11-19 20:52:00
3:12 PM,59.5,38.3,45,30.01,10.0,South,4.6,-,N/A,,Scattered Clouds,170,2012-11-19 21:12:00
3:32 PM,59.2,38.1,46,30.01,10.0,South,4.6,-,N/A,,Scattered Clouds,170,2012-11-19 21:32:00
3:52 PM,58.6,37.8,46,30.01,10.0,Calm,Calm,-,N/A,,Scattered Clouds,0,2012-11-19 21:52:00
4:12 PM,58.5,37.9,46,30.01,10.0,SSE,4.6,-,N/A,,Scattered Clouds,160,2012-11-19 22:12:00
4:32 PM,57.4,37.8,48,30.01,10.0,South,3.5,-,N/A,,Mostly Cloudy,170,2012-11-19 22:32:00
4:52 PM,56.5,37.8,50,30.02,10.0,South,3.5,-,N/A,,Scattered Clouds,170,2012-11-19 22:52:00
5:12 PM,55.6,37.8,51,30.02,10.0,Calm,Calm,-,N/A,,Clear,0,2012-11-19 23:12:00
5:32 PM,53.8,37.9,55,30.03,10.0,Calm,Calm,-,N/A,,Clear,0,2012-11-19 23:32:00
5:52 PM,51.6,37.8,59,30.03,10.0,SSE,3.5,-,N/A,,Clear,160,2012-11-19 23:52:00
6:12 PM,51.8,39.7,63,30.03,10.0,SE,3.5,-,N/A,,Clear,140,2012-11-20 00:12:00
6:32 PM,51.1,40.1,66,30.03,10.0,SSE,4.6,-,N/A,,Clear,150,2012-11-20 00:32:00
6:52 PM,48.7,39.4,70,30.04,10.0,Calm,Calm,-,N/A,,Clear,0,2012-11-20 00:52:00
7:12 PM,48.6,39.7,72,30.05,10.0,Calm,Calm,-,N/A,,Clear,0,2012-11-20 01:12:00
7:32 PM,47.3,39.4,74,30.05,10.0,Calm,Calm,-,N/A,,Clear,0,2012-11-20 01:32:00
7:52 PM,45.5,37.9,75,30.05,10.0,Calm,Calm,-,N/A,,Clear,0,2012-11-20 01:52:00
8:12 PM,45.7,39.0,78,30.05,10.0,Calm,Calm,-,N/A,,Clear,0,2012-11-20 02:12:00
8:32 PM,43.5,37.4,79,30.06,10.0,Calm,Calm,-,N/A,,Clear,0,2012-11-20 02:32:00
8:52 PM,43.7,37.8,80,30.05,10.0,Calm,Calm,-,N/A,,Clear,0,2012-11-20 02:52:00
9:12 PM,41.2,36.3,83,30.05,10.0,Calm,Calm,-,N/A,,Clear,0,2012-11-20 03:12:00
9:32 PM,42.3,37.6,83,30.04,10.0,Calm,Calm,-,N/A,,Clear,0,2012-11-20 03:32:00
9:52 PM,41.0,36.5,84,30.04,10.0,Calm,Calm,-,N/A,,Clear,0,2012-11-20 03:52:00
10:12 PM,40.1,36.5,87,30.04,10.0,Calm,Calm,-,N/A,,Unknown,0,2012-11-20 04:12:00
10:32 PM,40.5,36.7,86,30.05,10.0,Calm,Calm,-,N/A,,Unknown,0,2012-11-20 04:32:00
10:52 PM,39.7,36.1,87,30.05,10.0,Calm,Calm,-,N/A,,Unknown,0,2012-11-20 04:52:00
11:12 PM,39.7,36.0,86,30.06,7.0,Calm,Calm,-,N/A,,Unknown,0,2012-11-20 05:12:00
11:32 PM,39.2,36.3,89,30.06,7.0,Calm,Calm,-,N/A,,Unknown,0,2012-11-20 05:32:00
11:52 PM,39.2,36.5,90,30.07,7.0,Calm,Calm,-,N/A,,Unknown,0,2012-11-20 05:52:00